Weather in Bandar-e Abbas

Iran     27°11′36″N   56°18′19″E
temp.,
°C
wind,
m/s
gust,
m/s
humid.,
%
clouds,
%
prec.,
mm/h
press.,
hPa
HPBL,
m
7 august, sun
sun701:30+31ese44780 0.0 997383
04:30+30e23810 0.0 997265
07:30+32ene22715 0.0 999195
10:30+33sse42665 0.0 999470
13:30+33sse42709 0.0 998505
16:30+33sse22636 0.0 996344
19:30+33ese21570 0.0 996183
22:30+33se33600 0.0 998147
8 august, mon
mon801:30+32ese11710 0.0 998127
04:30+32e11660 0.0 99733
07:30+33ssw11620 0.0 99890
10:30+35sse31540 0.0 998335
13:30+34s32570 0.0 997442
16:30+34sse32580 0.0 995309
19:30+36wsw35490 0.0 994277
22:30+35se22535 0.0 99662
9 august, tue
tue901:30+33ese22615 0.0 99575
04:30+31sse11745 0.0 99581
07:30+32ene226767 0.0 997118
10:30+37se22430 0.0 996344
13:30+35sse53515 0.0 996378
16:30+33sse326451 0.0 995324
19:30+33ese3363100 0.0 994235
22:30+31ese3274100 0.0 996314
10 august, wed
wed1001:30+31e337198 0.0 996277
04:30+31e3370100 0.0 995244
07:30+31ese11645 0.0 996142
10:30+33se325622 0.0 996354
13:30+34sse425856 0.0 995421
16:30+34s2256100 0.0 993265
19:30+34sse2254100 0.0 993133
22:30+32ne1167100 0.0 995129
11 august, thu
thu1101:30+31ese226898 0.0 994164
04:30+31e3372100 0.0 994196
07:30+31e22656 0.0 996191
10:30+33se336076 0.0 997386
13:30+35sse4348100 0.0 996526
16:30+35s22431 0.0 994307
19:30+34se33470 0.0 994130
22:30+32e22585 0.0 996156